• In Czech Republic
  • List of Countries
  • For 7 days
  • Water Temperature
  • Satellite Maps
  • Weather Map
  • Weather Widgets
  • user-avatar
    Login

    Hourly Weather North-Horr

    Today, 21 October, Saturday

    Time Temperature Precipitation Wind Pressure Humidity
    00:00 +30°C° 0.2 mm 3 mps 726 mmHg 61%
    01:00 +29°C° 0.2 mm 2 mps 726 mmHg 62%
    02:00 +29°C° 0 mm 2 mps 726 mmHg 63%
    03:00 +29°C° 0.2 mm 3 mps 726 mmHg 64%
    04:00 +29°C° 0.2 mm 3 mps 726 mmHg 65%
    05:00 +29°C° 0.2 mm 4 mps 726 mmHg 66%
    06:00 +29°C° 0.3 mm 5 mps 726 mmHg 64%
    07:00 +30°C° 0.3 mm 6 mps 727 mmHg 62%
    08:00 +32°C° 0 mm 7 mps 727 mmHg 58%
    09:00 +33°C° 0.4 mm 7 mps 727 mmHg 55%
    10:00 +34°C° 0.4 mm 7 mps 727 mmHg 52%
    11:00 +34°C° 0.4 mm 7 mps 726 mmHg 49%
    12:00 +35°C° 0.1 mm 7 mps 726 mmHg 47%
    13:00 +36°C° 0.1 mm 7 mps 725 mmHg 44%
    14:00 +36°C° 0.1 mm 7 mps 724 mmHg 41%
    15:00 +36°C° 0 mm 7 mps 724 mmHg 41%
    16:00 +36°C° 0 mm 7 mps 724 mmHg 42%
    17:00 +36°C° 0 mm 7 mps 724 mmHg 42%
    18:00 +35°C° 0 mm 7 mps 724 mmHg 43%
    19:00 +35°C° 0 mm 7 mps 725 mmHg 44%
    20:00 +34°C° 0 mm 6 mps 725 mmHg 45%
    21:00 +34°C° 0 mm 6 mps 725 mmHg 46%
    22:00 +33°C° 0 mm 6 mps 725 mmHg 47%
    23:00 +33°C° 0 mm 6 mps 725 mmHg 49%

    Tomorrow, 22 October, Sunday

    Time Temperature Precipitation Wind Pressure Humidity
    00:00 +33°C° 0 mm 7 mps 725 mmHg 51%
    01:00 +32°C° 0 mm 7 mps 725 mmHg 53%
    02:00 +32°C° 0 mm 8 mps 725 mmHg 55%
    03:00 +31°C° 0 mm 8 mps 725 mmHg 57%
    04:00 +31°C° 0 mm 8 mps 725 mmHg 58%
    05:00 +29°C° 0 mm 8 mps 726 mmHg 60%
    06:00 +31°C° 0 mm 8 mps 726 mmHg 58%
    07:00 +31°C° 0 mm 9 mps 727 mmHg 56%
    08:00 +31°C° 0 mm 9 mps 727 mmHg 54%
    09:00 +32°C° 0 mm 9 mps 727 mmHg 49%
    10:00 +33°C° 0 mm 9 mps 727 mmHg 45%
    11:00 +34°C° 0 mm 8 mps 727 mmHg 40%
    12:00 +35°C° 0 mm 8 mps 726 mmHg 35%
    13:00 +38°C° 0 mm 8 mps 725 mmHg 30%
    14:00 +39°C° 0 mm 7 mps 724 mmHg 25%
    15:00 +38°C° 0 mm 7 mps 724 mmHg 25%
    16:00 +38°C° 0 mm 7 mps 723 mmHg 25%
    17:00 +38°C° 0 mm 6 mps 723 mmHg 24%
    18:00 +36°C° 0 mm 6 mps 724 mmHg 26%
    19:00 +35°C° 0 mm 6 mps 724 mmHg 29%
    20:00 +35°C° 0 mm 5 mps 725 mmHg 31%
    21:00 +34°C° 0 mm 5 mps 725 mmHg 32%
    22:00 +34°C° 0 mm 5 mps 725 mmHg 33%
    23:00 +34°C° 0 mm 5 mps 725 mmHg 34%

    Day after tomorrow, 23 October, Monday

    Time Temperature Precipitation Wind Pressure Humidity
    00:00 +33°C° 0 mm 6 mps 725 mmHg 36%
    01:00 +33°C° 0 mm 6 mps 724 mmHg 37%
    02:00 +32°C° 0 mm 6 mps 724 mmHg 38%
    03:00 +32°C° 0 mm 6 mps 724 mmHg 43%
    04:00 +30°C° 0 mm 7 mps 724 mmHg 48%
    05:00 +29°C° 0 mm 7 mps 724 mmHg 53%
    06:00 +31°C° 0 mm 8 mps 725 mmHg 52%
    07:00 +32°C° 0 mm 8 mps 726 mmHg 52%
    08:00 +32°C° 0 mm 8 mps 726 mmHg 51%
    09:00 +33°C° 0 mm 8 mps 726 mmHg 46%
    10:00 +35°C° 0 mm 8 mps 726 mmHg 41%
    11:00 +36°C° 0 mm 7 mps 726 mmHg 37%
    12:00 +38°C° 0 mm 7 mps 725 mmHg 34%
    13:00 +39°C° 0 mm 6 mps 724 mmHg 32%
    14:00 +39°C° 0 mm 6 mps 723 mmHg 29%
    15:00 +39°C° 0 mm 6 mps 722 mmHg 30%
    16:00 +39°C° 0 mm 6 mps 722 mmHg 30%
    17:00 +39°C° 0 mm 6 mps 722 mmHg 30%
    18:00 +37°C° 0 mm 5 mps 723 mmHg 32%
    19:00 +37°C° 0 mm 5 mps 723 mmHg 33%
    20:00 +36°C° 0 mm 5 mps 724 mmHg 35%
    21:00 +36°C° 0 mm 4 mps 724 mmHg 36%
    22:00 +35°C° 0 mm 4 mps 724 mmHg 38%
    23:00 +35°C° 0 mm 4 mps 724 mmHg 40%

    24 October, Tuesday

    Time Temperature Precipitation Wind Pressure Humidity
    00:00 +34°C° 0 mm 4 mps 723 mmHg 42%
    01:00 +34°C° 0 mm 5 mps 723 mmHg 45%
    02:00 +33°C° 0 mm 6 mps 722 mmHg 47%
    03:00 +32°C° 0.1 mm 6 mps 723 mmHg 51%
    04:00 +32°C° 0.1 mm 6 mps 723 mmHg 55%
    05:00 +32°C° 0.1 mm 7 mps 724 mmHg 58%
    06:00 +32°C° 0 mm 7 mps 724 mmHg 56%
    07:00 +33°C° 0 mm 8 mps 725 mmHg 54%
    08:00 +33°C° 0 mm 8 mps 726 mmHg 52%
    09:00 +35°C° 0 mm 8 mps 725 mmHg 47%
    10:00 +36°C° 0 mm 7 mps 725 mmHg 42%
    11:00 +38°C° 0 mm 7 mps 725 mmHg 38%
    12:00 +39°C° 0 mm 6 mps 724 mmHg 35%
    13:00 +39°C° 0 mm 6 mps 723 mmHg 33%
    14:00 +40°C° 0 mm 5 mps 722 mmHg 30%
    15:00 +40°C° 0 mm 5 mps 722 mmHg 30%
    16:00 +40°C° 0 mm 5 mps 722 mmHg 29%
    17:00 +40°C° 0 mm 4 mps 722 mmHg 29%
    18:00 +38°C° 0 mm 4 mps 722 mmHg 30%
    19:00 +38°C° 0 mm 4 mps 723 mmHg 32%
    20:00 +37°C° 0 mm 4 mps 724 mmHg 33%
    21:00 +37°C° 0 mm 4 mps 724 mmHg 35%
    22:00 +36°C° 0 mm 4 mps 724 mmHg 38%
    23:00 +36°C° 0 mm 4 mps 724 mmHg 40%

    25 October, Wednesday

    Time Temperature Precipitation Wind Pressure Humidity
    00:00 +35°C° 0.5 mm 5 mps 723 mmHg 44%
    01:00 +34°C° 0.5 mm 5 mps 723 mmHg 47%
    02:00 +33°C° 0.5 mm 6 mps 722 mmHg 50%
    03:00 +33°C° 0.6 mm 5 mps 723 mmHg 51%
    04:00 +32°C° 0.6 mm 5 mps 723 mmHg 52%
    05:00 +32°C° 0.6 mm 5 mps 724 mmHg 53%
    06:00 +32°C° 0.1 mm 6 mps 725 mmHg 50%
    07:00 +33°C° 0.1 mm 6 mps 725 mmHg 48%
    08:00 +34°C° 0.1 mm 7 mps 726 mmHg 45%
    09:00 +35°C° 0 mm 7 mps 726 mmHg 43%
    10:00 +36°C° 0 mm 7 mps 725 mmHg 41%
    11:00 +38°C° 0 mm 7 mps 725 mmHg 39%
    12:00 +38°C° 0 mm 6 mps 724 mmHg 37%
    13:00 +39°C° 0 mm 6 mps 723 mmHg 35%
    14:00 +40°C° 0 mm 6 mps 722 mmHg 33%
    15:00 +39°C° 0 mm 6 mps 722 mmHg 34%
    16:00 +39°C° 0 mm 6 mps 723 mmHg 35%
    17:00 +38°C° 0 mm 6 mps 723 mmHg 35%
    18:00 +36°C° 0 mm 7 mps 724 mmHg 40%
    19:00 +35°C° 0 mm 8 mps 724 mmHg 45%
    20:00 +34°C° 0 mm 9 mps 725 mmHg 50%
    21:00 +33°C° 0.5 mm 9 mps 725 mmHg 54%
    22:00 +32°C° 0.5 mm 8 mps 724 mmHg 58%
    23:00 +31°C° 0.5 mm 8 mps 724 mmHg 63%

    26 October, Thursday

    Time Temperature Precipitation Wind Pressure Humidity
    00:00 +30°C° 0.9 mm 7 mps 724 mmHg 64%
    01:00 +29°C° 0.9 mm 6 mps 724 mmHg 66%
    02:00 +29°C° 0.9 mm 5 mps 724 mmHg 68%
    03:00 +29°C° 0.2 mm 5 mps 724 mmHg 68%
    04:00 +29°C° 0.2 mm 5 mps 725 mmHg 67%
    05:00 +29°C° 0.2 mm 5 mps 725 mmHg 67%
    06:00 +30°C° 0 mm 5 mps 726 mmHg 64%
    07:00 +30°C° 0 mm 6 mps 726 mmHg 61%
    08:00 +32°C° 0 mm 7 mps 727 mmHg 57%
    09:00 +33°C° 0 mm 6 mps 726 mmHg 53%
    10:00 +34°C° 0 mm 6 mps 726 mmHg 48%
    11:00 +35°C° 0 mm 6 mps 725 mmHg 44%
    12:00 +35°C° 0 mm 6 mps 724 mmHg 43%
    13:00 +36°C° 0 mm 6 mps 723 mmHg 43%
    14:00 +36°C° 0 mm 6 mps 723 mmHg 42%
    15:00 +36°C° 0 mm 6 mps 723 mmHg 42%
    16:00 +35°C° 0 mm 6 mps 723 mmHg 43%
    17:00 +35°C° 0 mm 6 mps 723 mmHg 43%
    18:00 +35°C° 0 mm 6 mps 723 mmHg 45%
    19:00 +34°C° 0 mm 7 mps 724 mmHg 47%
    20:00 +34°C° 0 mm 7 mps 724 mmHg 49%
    21:00 +33°C° 0 mm 7 mps 724 mmHg 50%
    22:00 +33°C° 0 mm 7 mps 724 mmHg 52%
    23:00 +33°C° 0 mm 7 mps 724 mmHg 54%
    Show more